Location: Red Deer
(52.2681°N, 113.8112°W)
Time: 23:25:11
(UTC-06:00)

QB50P2 - Pass Details

Date: 23 May 2022
Orbit: 589 x 607 km, 97.9° (Epoch: 27 June)

Event Time Altitude Azimuth Distance (km) Brightness Sun altitude
Rises 01:39:46 0° 30° (NNE) 2,838 ? -17.1°
Reaches altitude 10° 01:43:05 10° 59° (ENE) 1,927 ? -17.1°
Maximum altitude 01:45:03 13° 87° (E) 1,732 ? -17.1°
Drops below altitude 10° 01:47:00 10° 115° (ESE) 1,918 ? -17.1°
Enters shadow 01:47:22 - 120° (ESE) 1,989 ? -17.1°
